Timeline UpdatesTrip UpdatesNews PostsPvt PostsTravel TipsAdmin PostsConv PostsFollowed PostsChat RequestsBlog PostsPNR Posts

Disclaimer
Search
 
 
Thu Aug 28, 2014 06:33:08 ISTHomeTrainsΣChainsAtlasPNRForumGalleryNewsFAQTripsMembersLoginFeedback
No Recent News for this Train
Other Trains in the News **new
Latest...
Will depart from originating station at 15:30 hours w.e.f. 01.09.2014
Wed Aug 27, 2014 (04:18AM)
⇐ Return Journey: Train# 13352-Slip

18189/Tatanagar- Alappuzha Alleppey Express-Slip

Mar 11 2014 (6:26PM)
Change Departure Station:
Change Arrival Station:
Post a Train Travel TipPost a Train Travel Tip **new
Post a Comment/Question/Picture/VideoPost a Comment/Question/Picture/Video
Pantry/Catering
✓ Pantry Car Avbl
✓ Catering Avbl
.pantry car available from rourkela to allappuzha because pantry car...
Read more...
is available in dhanbad portion
Loco/Rake Reversals
MAS/Chennai Central (12); VSKP/Visakhapatnam Junction (8); SRR/Shoranur Junction (7);
RSA - Rake Sharing
Rake/Coach Composition
LOCO-SLR*-GS*-S1*-S2*-S3*-S4*-S5*-S6*-S7*-S8*-PC*-A1*-B1*-B2-ST1-ST2-ST3-ST4-ST5-GS-SLR; *= Dhanbad portion attached at ROU.
Loco
Loco In-Charge:- TATA - ROU :- TATA WAM-4/ASN WAM-4 ROU - VSKP...
Read more...
:- VSKP/R/BNDM WDM-3A VSKP - MAS :- AJJ WAM-4/BZA WAM-4 - RPM WAP-4/1 MAS - ALLP :- RPM WAP-1/WAP-4, AJJ WAM-4/WAP-4
News    PNR    Forum    Time-Table    Availability    Fare Chart    Map    Arr/Dep History    Trips    Gallery    ΣChains    X/O    Timeline    
Travel Time: 11h 55m    12 halts    Distance: 470 km    Avg Speed: 39 km/hr
Type: Mail/Express
Zone: SER/South Eastern
Departs @ 08:25
Platform# ???
SMTWTFS
Bommidi/BQI 
Arrives @ 20:20
Platform# 3
SMTWTFS
Alappuzha/ALLP 

12 halts. 79 intermediate Stations between Bommidi and Alappuzha

Show ALL intermediate Stations  Show Old Time-Table

#CodeStation NameX/OArrivesAvgDepartsAvgHaltPFDay#KmSpeedElevZoneAddress
1TATATatanagar Junction (5)  -15:45-11-1892.965164mSER91-657-2423026, Jharkhand
2SINISini Junction (3)X  16:10-16:11-1m--1-1866.065182mSERNational Highway 33, Jharkhand
3RKSNRajkharsawan Junction (3)  16:25-16:26-1m--1-1850.750189mSERSaraikela Kharswan District, Jharkhand
4CKPChakradharpur (3)  16:50-16:55-5m11-1830.797235mSERChakradharpur (West Singhbhum), Jharkhand
5GOLGoilkera (2)X  17:16-17:17-1m--1-1796.957333mSERGoilkera, Jharkhand
6MOUManoharpur  17:46-17:47-1m--1-1769.468228mSERManoharpur, Jharkhand
7JRAJaraikela17:57-17:58-1m--1-1758.082215mSERJaraikela Station, Jharkhand
8BNDMBondamunda (2)O  18:14-18:15-1m--1-1736.120213mSERRourkela, Odisha
9ROURourkela Junction (5)X18:35-19:00-25m11-1729.664198mSERRourkela, Odisha
10GPRaj Gangpur (3)  19:28-19:29-1m--1-1699.869237mSERRaj Ganpur, Odisha
11BMBBamra (3)X  19:59-20:00-1m--1-1665.255259mSERBamra PH : 06642-229268, Odisha
12JSGJharsuguda Junction (5)  20:40-20:50-10m11-1628.763236mSERJharsuguda, Odisha
13RGLRengali  21:15-21:17-2m--1-1602.369208mECoRState Highway 10, Odisha
14SBPDSambalpur Road  21:35-21:37-2m--1-1581.611161mECoRSambalpur, Odisha
15SBPSambalpur Junction (3)X  21:45-21:55-10m11-1580.164159mECoRSambalpur, Odisha
16ATSAttabira  22:18-22:20-2m--1-1555.677164mECoRBargarh, Odisha
17BRGABargarh Road (3)X  22:34-22:39-5m--1-1537.564185mECoRBargarh, Odisha
18BRPLBarpaliX  22:57-22:59-2m--1-1518.367178mECoRBarpali, Odisha
19BLGRBalangir (3)  23:50-23:55-5m--1-1461.247210mECoRBolangir, Odisha
20BUDMBadmal  00:50-00:52-2m--2-1417.923209mECoRDumerbahal Rd, Odisha
21TIGTitlagarh Junction (3)X  01:45-01:55-10m--2-1397.956212mECoRTitlagarh, Odisha
22KSNGKesinga (1)X  02:10-02:12-2m12-1383.965183mECoRKesinga, Odisha
23RPRDRupra Road  02:27-02:29-2m--2-1367.744233mECoRKalahandi, Odisha
24NRLRNorla Road  02:38-02:40-2m--2-1361.160247mECoRKalahandi, Odisha
25AMBAmbodala  03:05-03:07-2m--2-1336.139374mECoRState Highway 6, Odisha
26MNGDMunigudaX  03:45-03:47-2m--2-1311.141335mECoRMuniguda, Odisha
27THVTherubali  04:40-04:42-2m--2-1275.131270mECoRRayagada, Odisha
28SPRDSingapuram Road (2)X  05:00-05:02-2m--2-1265.715248mECoRJaykaypur, Odisha
29RGDARayagada (3)  05:40-05:55-15m--2-1256.573229mECoRRayagada ph.no 06856-222407, Odisha
30PVPTParvatipuram TownX  06:32-06:34-2m--2-1211.225121mECoRParvatipuram, Andhra Pradesh
31PVPParvatipuram (3)X  06:38-06:40-2m--2-1209.672122mECoRParvatipuram, Andhra Pradesh
32VBLBobbili Junction (2)X  07:00-07:03-3m22-1185.745137mECoRBobbili, Andhra Pradesh
33VZMVizianagaram Junction (5)  08:15-08:20-5m--2-1131.47563mECoRVizianagaram, Andhra Pradesh
34KTVKottavalasa Junction (5)X  08:48-08:50-2m--2-1096.44058mECoRVizianagaram District, Andhra Pradesh
35SCMSimhachalam (2)  09:17-09:19-2m--2-1078.41127mECoRVisakhapatnam, Andhra Pradesh
36VSKPVisakhapatnam Junction (8)X10:05-10:25-20m42-1070.23311mECoRVishakhapatnam 530001, Andhra Pradesh
37DVDDuvvada (4)X  10:55-10:57-2m--2-1053.97446mECoRVishakhapatnam District, Andhra Pradesh
38AKPAnakapalle (3)  11:10-11:11-1m--2-1037.97130mSCRAnakapalle ph.no . 08924-221698, Andhra Pradesh
39YLMElamanchili (2)X  11:31-11:32-1m--2-1014.27123mSCRVisakhapatnam District, Andhra Pradesh
40NRPNarsipatnam Road (2)  11:47-11:48-1m--2-996.48418mSCRVisakhapatnam District, Andhra Pradesh
41TUNITuni (2)X  12:04-12:05-1m12-974.17124mSCRTuni ph.no. 08854-252172, Andhra Pradesh
42ANVAnnavaram (3)  12:19-12:20-1m12-957.57627mSCREast Godavari District, Andhra Pradesh
43GLPGollaproluX  12:35-12:36-1m--2-938.44919mSCRGollaprollu, Andhra Pradesh
44PAPPithapuram (2)  12:43-12:44-1m--2-932.77222mSCREast Godavari District, Andhra Pradesh
45SLOSamalkot Junction (3)  12:54-12:55-1m32-920.68418mSCRSamalkot, Andhra Pradesh
46APTAnaparti (3)  13:14-13:15-1m--2-894.13821mSCREast Godavari District, Andhra Pradesh
47DWPDwarapudi (3)  13:21-13:22-1m--2-890.32420mSCREast Godavari District, Andhra Pradesh
48RJYRajahmundry (3)  14:11-14:16-5m12-870.43623mSCRRajahmundry ph.no. 0883-2420541, Andhra Pradesh
49KVRKovvur (3)  14:29-14:30-1m--2-862.66125mSCRWest Godavari, Andhra Pradesh
50NDDNidadavolu Junction (3)  14:44-14:45-1m--2-848.37120mSCRNidadavolu jtn ph.no. 08813-210325, Andhra Pradesh
51TDDTadepalligudem (3)X  15:02-15:03-1m--2-828.38718mSCRTadepalligudem, Andhra Pradesh
52EEEluru (3)X  15:36-15:37-1m32-780.53319mSCREluru Ph.no. 08812 226401., Andhra Pradesh
53BZAVijayawada Junction (10)X  17:25-17:45-20m--2-721.16924mSCRVijayawada 520001, Andhra Pradesh
54TELTenali Junction (5)  18:12-18:13-1m32-689.96616mSCRTel: 08644-227834, Andhra Pradesh
55NDONidubrolu (3)  18:33-18:34-1m--2-667.9659mSCRNidubrolu, Andhra Pradesh
56BPPBapatla (3)X  18:53-18:54-1m--2-647.37510mSCRBapatla, Andhra Pradesh
57CLXChirala (4)X  19:06-19:07-1m--2-632.2768mSCRChirala, Andhra Pradesh
58CJMChinnaganjam (3)X  19:23-19:24-1m--2-611.9369mSCRChinna Ganjam, Andhra Pradesh
59OGLOngole (3)  20:12-20:13-1m32-582.97712mSCROngole, Andhra Pradesh
60SKMSingarayakonda (2)X  20:35-20:36-1m22-554.69126mSCRSingarayakonda, Andhra Pradesh
61KVZKavali (4)X  21:01-21:02-1m22-516.97621mSCRKavali, Andhra Pradesh
62BTTRBitragunta (2)X  21:15-21:16-1m22-500.44515mSCRBitragunta, Andhra Pradesh
63NLRNellore (4)X  22:02-22:03-1m32-466.11721mSCRNellore, Andhra Pradesh
64GDRGudur Junction (3)  00:18-00:20-2m23-427.66919mSCRGudur, Andhra Pradesh
65NYPNayadupeta (3)  00:44-00:45-1m23-399.96833mSRNayudupeta, Andhra Pradesh
66SPESullurupeta (3)  01:09-01:10-1m23-372.7459mSR524121., Andhra Pradesh
67MASChennai Central (12)03:00-03:25-25m83-290.3579mSRChennai 600003, Tamil Nadu
68TRLTiruvallur (6)  04:09-04:10-1m--3-248.66550mSRTiruvallur, Tamil Nadu
69AJJArakkonam Junction (8)X  04:35-04:40-5m13-221.66891mSRArakkonam, Tamil Nadu
70MCNMukundarayapuram (2)  05:19-05:20-1m--3-177.433198mSRSipcot Ranipet, Tamil Nadu
71KPDKatpadi Junction (5)  05:50-05:55-5m13-160.877213mSRVellore 632007, Tamil Nadu
72GYMGudiyattam (3)  06:14-06:15-1m33-136.391269mSRVellore, Tamil Nadu
73VNVaniyambadiXO  06:44-06:45-1m--3-92.528357mSRVaniyambadi, Tamil Nadu
74JTJJolarpettai Junction (5)  07:18-07:20-2m--3-77.043405mSRJolarpettai, Tamil Nadu
75TPTTirupattur (2)  07:30-07:32-2m--3-69.877392mSRTirupattur ph.no. 04179-220062, Tamil Nadu
76SLYSamalpatti  07:50-07:52-2m--3-46.690388mSRSamalpatti ph.no. 04341-245601, Tamil Nadu
77BQI»Bommidi»X  08:23-08:25-2m--30.0740mSRBommidi ph.no. 04346-244441, Tamil Nadu
78SASalem Junction (6)X  09:00-09:05-5m--343.353283mSRSalem, Tamil Nadu
79EDErode Junction (4)X  10:15-10:25-10m23104.679175mSRErode ph.no: 0424-2256111, Tamil Nadu
80TUPTiruppur (2)O  11:03-11:05-2m13154.848305mSRTiruppur. Ph:0421-2200450, Tamil Nadu
81CBECoimbatore Main Junction (6)  12:08-12:10-2m--3205.341416mSRCoimbatore 641001, Tamil Nadu
82PGTPalakkad Junction (4)  13:30-13:35-5m--3260.64184mSRPalghat Tel: 0491 2555231, Kerala
83SRRShoranur Junction (7)XO14:40-15:25-45m53305.23226mSRShoranur ph.no 0466-2222913, Kerala
84TCRThrissur (4)  16:27-16:30-3m13338.2686mSRThrissur Tel: 0487 2423150, Kerala
85AWYAluva (3)XO  17:18-17:20-2m13392.81812mSRPh: 0484-2624141, Kerala
86ERSErnakulam Junction (South) (6)X  18:26-18:30-4m13412.2413mSRErnakulam 682016, Kerala
87TUVRTuravur (2)  19:04-19:05-1m--3435.6435mSRThuravoor, Kerala
88SRTLCherthala (3)  19:19-19:20-1m23445.61327mSRPh: 0478- 2812500, Kerala
89MAKMMararikkulam (1)X  19:25-19:45-20m13456.52312mSRMararikulam, Kerala
90ALLP•Alappuzha (3)•  20:20--33469.7-8mSRPh:0477-2253965, Kerala
Scroll to Top
Scroll to Bottom